This demonstration page uses our WeatherBlox Daily Observations layout. Learn more.

Left ArrowRight Arrow

31.84235, -102.49876

Hourly Observations for July 10, 2022

Temp ( °F °C ) Dew Point ( °F °C ) Humidity (%) Winds ( mph kmh ) Pressure ( in mb ) Visibility ( mi km ) Precip ( " mm )
12:53 am 00:53 Partly Cloudy 86 30 57 13.9 37 37 ESE 5 7 30.00 1016 10 16 0.00 0.00
1:53 am 01:53 Clear 84 28.9 58 14.4 41 41 E 6 9 29.99 1016 10 16 0.00 0.00
2:53 am 02:53 Clear 83 28.3 58 14.4 43 43 E 8 13 29.99 1016 10 16 0.00 0.00
3:53 am 03:53 Clear 80 26.7 59 15 49 49 ENE 8 13 29.99 1016 10 16 0.00 0.00
4:53 am 04:53 Clear 79 26.1 58 14.4 49 49 NE 7 11 29.98 1015 10 16 0.00 0.00
5:53 am 05:53 Clear 78 25.6 59 15 52 52 NE 5 7 29.98 1015 10 16 0.00 0.00
6:53 am 06:53 Sunny 78 25.6 59 15 52 52 NE 7 11 29.99 1016 10 16 0.00 0.00
7:53 am 07:53 Sunny 80 26.7 60 15.6 51 51 E 3 6 30.01 1016 10 16 0.00 0.00
8:53 am 08:53 Sunny 84 28.9 60 15.6 44 44 ENE 5 7 30.01 1016 10 16 0.00 0.00
9:53 am 09:53 Sunny 88 31.1 61 16.1 40 40 VRB 5 7 30.01 1016 10 16 0.00 0.00
10:53 am 10:53 Sunny 91 32.8 61 16.1 37 37 ESE 7 11 30.00 1016 10 16 0.00 0.00
11:53 am 11:53 Sunny 94 34.4 61 16.1 33 33 SE 6 9 30.00 1016 10 16 0.00 0.00
12:53 pm 12:53 Mostly Sunny 98 36.7 59 15 27 27 E 9 15 29.98 1015 10 16 0.00 0.00
1:53 pm 13:53 Sunny 98 36.7 58 14.4 26 26 NE 6 9 29.96 1014 10 16 0.00 0.00
2:53 pm 14:53 Sunny 100 37.8 57 13.9 24 24 ESE 12 19 29.93 1014 10 16 0.00 0.00
3:53 pm 15:53 Mostly Sunny 100 37.8 53 11.7 21 21 NNE 5 7 29.91 1013 10 16 0.00 0.00
4:53 pm 16:53 Sunny 102 38.9 51 10.6 18 18 ENE 13 20 29.87 1012 10 16 0.00 0.00
5:53 pm 17:53 Sunny 103 39.4 52 11.1 18 18 E 12 19 29.85 1011 10 16 0.00 0.00
6:53 pm 18:53 Sunny 101 38.3 49 9.4 17 17 NE 5 7 29.83 1010 10 16 0.00 0.00
7:53 pm 19:53 Sunny 99 37.2 48 8.9 18 18 NE 9 15 29.82 1010 10 16 0.00 0.00
8:53 pm 20:53 Sunny 96 35.6 46 7.8 18 18 E 8 13 29.83 1010 10 16 0.00 0.00
9:53 pm 21:53 Clear 92 33.3 57 13.9 31 31 W 6 9 29.84 1011 10 16 0.00 0.00
10:53 pm 22:53 Clear 90 32.2 58 14.4 34 34 WSW 8 13 29.86 1011 10 16 0.00 0.00
11:53 pm 23:53 Clear 86 30 58 14.4 39 39 WNW 5 7 29.87 1012 10 16 0.00 0.00

Powered by AerisWeather